Year,Month,Day,Hour,Minute,Value (Times are PST for temperature in C)
2014,09,16,00,00,13.00
2014,09,16,00,01,13.00
2014,09,16,00,02,13.10
2014,09,16,00,03,13.10
2014,09,16,00,04,13.10
2014,09,16,00,05,13.10
2014,09,16,00,06,13.10
2014,09,16,00,07,13.10
2014,09,16,00,08,13.10
2014,09,16,00,09,13.10
2014,09,16,00,10,13.20
2014,09,16,00,11,13.20
2014,09,16,00,12,13.20
2014,09,16,00,13,13.20
2014,09,16,00,14,13.20
2014,09,16,00,15,13.20
2014,09,16,00,16,13.20
2014,09,16,00,17,13.20
2014,09,16,00,18,13.20
2014,09,16,00,19,13.20
2014,09,16,00,20,13.20
2014,09,16,00,21,13.20
2014,09,16,00,22,13.20
2014,09,16,00,23,13.20
2014,09,16,00,24,13.20
2014,09,16,00,25,13.20
2014,09,16,00,26,13.20
2014,09,16,00,27,13.20
2014,09,16,00,28,13.20
2014,09,16,00,29,13.20
2014,09,16,00,30,13.20
2014,09,16,00,31,13.20
2014,09,16,00,32,13.20
2014,09,16,00,33,13.20
2014,09,16,00,34,13.20
2014,09,16,00,35,13.20
2014,09,16,00,36,13.20
2014,09,16,00,37,13.20
2014,09,16,00,38,13.20
2014,09,16,00,39,13.20
2014,09,16,00,40,13.20
2014,09,16,00,41,13.30
2014,09,16,00,42,13.20
2014,09,16,00,43,13.30
2014,09,16,00,44,13.30
2014,09,16,00,45,13.30
2014,09,16,00,46,13.30
2014,09,16,00,47,13.30
2014,09,16,00,48,13.30
2014,09,16,00,49,13.30
2014,09,16,00,50,13.30
2014,09,16,00,51,13.30
2014,09,16,00,52,13.30
2014,09,16,00,53,13.40
2014,09,16,00,54,13.40
2014,09,16,00,55,13.40
2014,09,16,00,56,13.40
2014,09,16,00,57,13.50
2014,09,16,00,58,13.50
2014,09,16,00,59,13.50
2014,09,16,01,00,13.50
2014,09,16,01,01,13.50
2014,09,16,01,02,13.50
2014,09,16,01,03,13.50
2014,09,16,01,04,13.50
2014,09,16,01,05,13.50
2014,09,16,01,06,13.40
2014,09,16,01,07,13.40
2014,09,16,01,08,13.40
2014,09,16,01,09,13.40
2014,09,16,01,10,13.40
2014,09,16,01,11,13.40
2014,09,16,01,12,13.40
2014,09,16,01,13,13.40
2014,09,16,01,14,13.40
2014,09,16,01,15,13.40
2014,09,16,01,16,13.40
2014,09,16,01,17,13.40
2014,09,16,01,18,13.40
2014,09,16,01,19,13.40
2014,09,16,01,20,13.40
2014,09,16,01,21,13.40
2014,09,16,01,22,13.40
2014,09,16,01,23,13.40
2014,09,16,01,24,13.40
2014,09,16,01,25,13.40
2014,09,16,01,26,13.40
2014,09,16,01,27,13.30
2014,09,16,01,28,13.30
2014,09,16,01,29,13.30
2014,09,16,01,30,13.30
2014,09,16,01,31,13.30
2014,09,16,01,32,13.30
2014,09,16,01,33,13.20
2014,09,16,01,34,13.20
2014,09,16,01,35,13.20
2014,09,16,01,36,13.20
2014,09,16,01,37,13.20
2014,09,16,01,38,13.10
2014,09,16,01,39,13.10
2014,09,16,01,40,13.10
2014,09,16,01,41,13.00
2014,09,16,01,42,13.00
2014,09,16,01,43,13.00
2014,09,16,01,44,12.90
2014,09,16,01,45,12.90
2014,09,16,01,46,12.90
2014,09,16,01,47,12.90
2014,09,16,01,48,12.80
2014,09,16,01,49,12.80
2014,09,16,01,50,12.80
2014,09,16,01,51,12.80
2014,09,16,01,52,12.70
2014,09,16,01,53,12.70
2014,09,16,01,54,12.70
2014,09,16,01,55,12.70
2014,09,16,01,56,12.70
2014,09,16,01,57,12.60
2014,09,16,01,58,12.60
2014,09,16,01,59,12.60
2014,09,16,02,00,12.50
2014,09,16,02,01,12.50
2014,09,16,02,02,12.50
2014,09,16,02,03,12.50
2014,09,16,02,04,12.40
2014,09,16,02,05,12.40
2014,09,16,02,06,12.40
2014,09,16,02,07,12.30
2014,09,16,02,08,12.30
2014,09,16,02,09,12.30
2014,09,16,02,10,12.30
2014,09,16,02,11,12.30
2014,09,16,02,12,12.20
2014,09,16,02,13,12.20
2014,09,16,02,14,12.20
2014,09,16,02,15,12.20
2014,09,16,02,16,12.10
2014,09,16,02,17,12.10
2014,09,16,02,18,12.10
2014,09,16,02,19,12.10
2014,09,16,02,20,12.10
2014,09,16,02,21,12.00
2014,09,16,02,22,12.00
2014,09,16,02,23,12.00
2014,09,16,02,24,11.90
2014,09,16,02,25,11.90
2014,09,16,02,26,11.90
2014,09,16,02,27,11.90
2014,09,16,02,28,11.90
2014,09,16,02,29,11.80
2014,09,16,02,30,11.80
2014,09,16,02,31,11.80
2014,09,16,02,32,11.80
2014,09,16,02,33,11.80
2014,09,16,02,34,11.80
2014,09,16,02,35,11.80
2014,09,16,02,36,11.80
2014,09,16,02,37,11.80
2014,09,16,02,38,11.70
2014,09,16,02,39,11.70
2014,09,16,02,40,11.70
2014,09,16,02,41,11.70
2014,09,16,02,42,11.70
2014,09,16,02,43,11.70
2014,09,16,02,44,11.70
2014,09,16,02,45,11.70
2014,09,16,02,46,11.70
2014,09,16,02,47,11.60
2014,09,16,02,48,11.70
2014,09,16,02,49,11.60
2014,09,16,02,50,11.60
2014,09,16,02,51,11.60
2014,09,16,02,52,11.60
2014,09,16,02,53,11.60
2014,09,16,02,54,11.60
2014,09,16,02,55,11.60
2014,09,16,02,56,11.60
2014,09,16,02,57,11.60
2014,09,16,02,58,11.60
2014,09,16,02,59,11.60
2014,09,16,03,00,11.60
2014,09,16,03,01,11.60
2014,09,16,03,02,11.60
2014,09,16,03,03,11.60
2014,09,16,03,04,11.60
2014,09,16,03,05,11.60
2014,09,16,03,06,11.60
2014,09,16,03,07,11.60
2014,09,16,03,08,11.60
2014,09,16,03,09,11.60
2014,09,16,03,10,11.60
2014,09,16,03,11,11.60
2014,09,16,03,12,11.50
2014,09,16,03,13,11.50
2014,09,16,03,14,11.50
2014,09,16,03,15,11.50
2014,09,16,03,16,11.50
2014,09,16,03,17,11.40
2014,09,16,03,18,11.40
2014,09,16,03,19,11.40
2014,09,16,03,20,11.40
2014,09,16,03,21,11.40
2014,09,16,03,22,11.40
2014,09,16,03,23,11.40
2014,09,16,03,24,11.40
2014,09,16,03,25,11.40
2014,09,16,03,26,11.40
2014,09,16,03,27,11.40
2014,09,16,03,28,11.30
2014,09,16,03,29,11.30
2014,09,16,03,30,11.30
2014,09,16,03,31,11.30
2014,09,16,03,32,11.30
2014,09,16,03,33,11.30
2014,09,16,03,34,11.30
2014,09,16,03,35,11.30
2014,09,16,03,36,11.30
2014,09,16,03,37,11.20
2014,09,16,03,38,11.20
2014,09,16,03,39,11.20
2014,09,16,03,40,11.20
2014,09,16,03,41,11.20
2014,09,16,03,42,11.20
2014,09,16,03,43,11.20
2014,09,16,03,44,11.20
2014,09,16,03,45,11.20
2014,09,16,03,46,11.20
2014,09,16,03,47,11.10
2014,09,16,03,48,11.10
2014,09,16,03,49,11.10
2014,09,16,03,50,11.10
2014,09,16,03,51,11.10
2014,09,16,03,52,11.10
2014,09,16,03,53,11.20
2014,09,16,03,54,11.20
2014,09,16,03,55,11.20
2014,09,16,03,56,11.20
2014,09,16,03,57,11.20
2014,09,16,03,58,11.20
2014,09,16,03,59,11.20
2014,09,16,04,00,11.20
2014,09,16,04,01,11.20
2014,09,16,04,02,11.20
2014,09,16,04,03,11.20
2014,09,16,04,04,11.20
2014,09,16,04,05,11.20
2014,09,16,04,06,11.20
2014,09,16,04,07,11.20
2014,09,16,04,08,11.20
2014,09,16,04,09,11.20
2014,09,16,04,10,11.20
2014,09,16,04,11,11.30
2014,09,16,04,12,11.30
2014,09,16,04,13,11.30
2014,09,16,04,14,11.30
2014,09,16,04,15,11.30
2014,09,16,04,16,11.20
2014,09,16,04,17,11.30
2014,09,16,04,18,11.30
2014,09,16,04,19,11.30
2014,09,16,04,20,11.30
2014,09,16,04,21,11.30
2014,09,16,04,22,11.30
2014,09,16,04,23,11.30
2014,09,16,04,24,11.30
2014,09,16,04,25,11.30
2014,09,16,04,26,11.30
2014,09,16,04,27,11.30
2014,09,16,04,28,11.30
2014,09,16,04,29,11.30
2014,09,16,04,30,11.30
2014,09,16,04,31,11.30
2014,09,16,04,32,11.40
2014,09,16,04,33,11.40
2014,09,16,04,34,11.50
2014,09,16,04,35,11.50
2014,09,16,04,36,11.50
2014,09,16,04,37,11.60
2014,09,16,04,38,11.60
2014,09,16,04,39,11.60
2014,09,16,04,40,11.70
2014,09,16,04,41,11.70
2014,09,16,04,42,11.70
2014,09,16,04,43,11.70
2014,09,16,04,44,11.70
2014,09,16,04,45,11.70
2014,09,16,04,46,11.80
2014,09,16,04,47,11.80
2014,09,16,04,48,11.80
2014,09,16,04,49,11.80
2014,09,16,04,50,11.80
2014,09,16,04,51,11.80
2014,09,16,04,52,11.80
2014,09,16,04,53,11.70
2014,09,16,04,54,11.70
2014,09,16,04,55,11.70
2014,09,16,04,56,11.70
2014,09,16,04,57,11.70
2014,09,16,04,58,11.70
2014,09,16,04,59,11.60
2014,09,16,05,00,11.60
2014,09,16,05,01,11.60
2014,09,16,05,02,11.50
2014,09,16,05,03,11.50
2014,09,16,05,04,11.50
2014,09,16,05,05,11.40
2014,09,16,05,06,11.40
2014,09,16,05,07,11.40
2014,09,16,05,08,11.30
2014,09,16,05,09,11.30
2014,09,16,05,10,11.20
2014,09,16,05,11,11.20
2014,09,16,05,12,11.10
2014,09,16,05,13,11.10
2014,09,16,05,14,11.00
2014,09,16,05,15,11.00
2014,09,16,05,16,10.90
2014,09,16,05,17,10.90
2014,09,16,05,18,10.80
2014,09,16,05,19,10.80
2014,09,16,05,20,10.80
2014,09,16,05,21,10.70
2014,09,16,05,22,10.70
2014,09,16,05,23,10.60
2014,09,16,05,24,10.60
2014,09,16,05,25,10.60
2014,09,16,05,26,10.50
2014,09,16,05,27,10.50
2014,09,16,05,28,10.50
2014,09,16,05,29,10.40
2014,09,16,05,30,10.40
2014,09,16,05,31,10.40
2014,09,16,05,32,10.30
2014,09,16,05,33,10.30
2014,09,16,05,34,10.30
2014,09,16,05,35,10.30
2014,09,16,05,36,10.30
2014,09,16,05,37,10.30
2014,09,16,05,38,10.30
2014,09,16,05,39,10.30
2014,09,16,05,40,10.30
2014,09,16,05,41,10.30
2014,09,16,05,42,10.30
2014,09,16,05,43,10.30
2014,09,16,05,44,10.30
2014,09,16,05,45,10.30
2014,09,16,05,46,10.40
2014,09,16,05,47,10.40
2014,09,16,05,48,10.40
2014,09,16,05,49,10.40
2014,09,16,05,50,10.50
2014,09,16,05,51,10.50
2014,09,16,05,52,10.50
2014,09,16,05,53,10.50
2014,09,16,05,54,10.50
2014,09,16,05,55,10.50
2014,09,16,05,56,10.50
2014,09,16,05,57,10.40
2014,09,16,05,58,10.40
2014,09,16,05,59,10.40
2014,09,16,06,00,10.40
2014,09,16,06,01,10.40
2014,09,16,06,02,10.40
2014,09,16,06,03,10.40
2014,09,16,06,04,10.40
2014,09,16,06,05,10.40
2014,09,16,06,06,10.40
2014,09,16,06,07,10.40
2014,09,16,06,08,10.40
2014,09,16,06,09,10.40
2014,09,16,06,10,10.40
2014,09,16,06,11,10.30
2014,09,16,06,12,10.30
2014,09,16,06,13,10.30
2014,09,16,06,14,10.30
2014,09,16,06,15,10.30
2014,09,16,06,16,10.20
2014,09,16,06,17,10.20
2014,09,16,06,18,10.20
2014,09,16,06,19,10.20
2014,09,16,06,20,10.20
2014,09,16,06,21,10.10
2014,09,16,06,22,10.10
2014,09,16,06,23,10.10
2014,09,16,06,24,10.10
2014,09,16,06,25,10.10
2014,09,16,06,26,10.10
2014,09,16,06,27,10.10
2014,09,16,06,28,10.10
2014,09,16,06,29,10.10
2014,09,16,06,30,10.10
2014,09,16,06,31,10.00
2014,09,16,06,32,10.00
2014,09,16,06,33,10.00
2014,09,16,06,34,10.00
2014,09,16,06,35,10.00
2014,09,16,06,36,10.00
2014,09,16,06,37,10.00
2014,09,16,06,38,10.00
2014,09,16,06,39,9.90
2014,09,16,06,40,9.90
2014,09,16,06,41,9.90
2014,09,16,06,42,9.90
2014,09,16,06,43,9.90
2014,09,16,06,44,9.90
2014,09,16,06,45,9.80
2014,09,16,06,46,9.80
2014,09,16,06,47,9.80
2014,09,16,06,48,9.80
2014,09,16,06,49,9.80
2014,09,16,06,50,9.80
2014,09,16,06,51,9.70
2014,09,16,06,52,9.70
2014,09,16,06,53,9.70
2014,09,16,06,54,9.70
2014,09,16,06,55,9.70
2014,09,16,06,56,9.70
2014,09,16,06,57,9.70
2014,09,16,06,58,9.70
2014,09,16,06,59,9.70
2014,09,16,07,00,9.70
2014,09,16,07,01,9.70
2014,09,16,07,02,9.70
2014,09,16,07,03,9.70
2014,09,16,07,04,9.70
2014,09,16,07,05,9.70
2014,09,16,07,06,9.70
2014,09,16,07,07,9.70
2014,09,16,07,08,9.70
2014,09,16,07,09,9.70
2014,09,16,07,10,9.70
2014,09,16,07,11,9.70
2014,09,16,07,12,9.70
2014,09,16,07,13,9.80
2014,09,16,07,14,9.80
2014,09,16,07,15,9.80
2014,09,16,07,16,9.80
2014,09,16,07,17,9.80
2014,09,16,07,18,9.80
2014,09,16,07,19,9.80
2014,09,16,07,20,9.80
2014,09,16,07,21,9.80
2014,09,16,07,22,9.80
2014,09,16,07,23,9.80
2014,09,16,07,24,9.90
2014,09,16,07,25,9.90
2014,09,16,07,26,9.90
2014,09,16,07,27,9.90
2014,09,16,07,28,9.90
2014,09,16,07,29,9.90
2014,09,16,07,30,10.00
2014,09,16,07,31,10.00
2014,09,16,07,32,10.00
2014,09,16,07,33,10.00
2014,09,16,07,34,10.10
2014,09,16,07,35,10.10
2014,09,16,07,36,10.10
2014,09,16,07,37,10.10
2014,09,16,07,38,10.10
2014,09,16,07,39,10.20
2014,09,16,07,40,10.20
2014,09,16,07,41,10.20
2014,09,16,07,42,10.30
2014,09,16,07,43,10.30
2014,09,16,07,44,10.40
2014,09,16,07,45,10.40
2014,09,16,07,46,10.50
2014,09,16,07,47,10.50
2014,09,16,07,48,10.60
2014,09,16,07,49,10.70
2014,09,16,07,50,10.70
2014,09,16,07,51,10.80
2014,09,16,07,52,10.80
2014,09,16,07,53,10.80
2014,09,16,07,54,10.90
2014,09,16,07,55,10.90
2014,09,16,07,56,11.00
2014,09,16,07,57,11.10
2014,09,16,07,58,11.10
2014,09,16,07,59,11.20
2014,09,16,08,00,11.20
2014,09,16,08,01,11.30
2014,09,16,08,02,11.30
2014,09,16,08,03,11.40
2014,09,16,08,04,11.50
2014,09,16,08,05,11.50
2014,09,16,08,06,11.60
2014,09,16,08,07,11.70
2014,09,16,08,08,11.70
2014,09,16,08,09,11.80
2014,09,16,08,10,11.90
2014,09,16,08,11,11.90
2014,09,16,08,12,12.00
2014,09,16,08,13,12.10
2014,09,16,08,14,12.20
2014,09,16,08,15,12.30
2014,09,16,08,16,12.40
2014,09,16,08,17,12.60
2014,09,16,08,18,12.70
2014,09,16,08,19,12.80
2014,09,16,08,20,12.80
2014,09,16,08,21,12.80
2014,09,16,08,22,12.90
2014,09,16,08,23,13.00
2014,09,16,08,24,13.00
2014,09,16,08,25,13.10
2014,09,16,08,26,13.20
2014,09,16,08,27,13.30
2014,09,16,08,28,13.30
2014,09,16,08,29,13.40
2014,09,16,08,30,13.40
2014,09,16,08,31,13.40
2014,09,16,08,32,13.40
2014,09,16,08,33,13.50
2014,09,16,08,34,13.60
2014,09,16,08,35,13.60
2014,09,16,08,36,13.70
2014,09,16,08,37,13.80
2014,09,16,08,38,13.90
2014,09,16,08,39,14.10
2014,09,16,08,40,14.20
2014,09,16,08,41,14.30
2014,09,16,08,42,14.40
2014,09,16,08,43,14.50
2014,09,16,08,44,14.60
2014,09,16,08,45,14.70
2014,09,16,08,46,14.70
2014,09,16,08,47,14.80
2014,09,16,08,48,14.90
2014,09,16,08,49,15.00
2014,09,16,08,50,15.00
2014,09,16,08,51,15.10
2014,09,16,08,52,15.20
2014,09,16,08,53,15.30
2014,09,16,08,54,15.30
2014,09,16,08,55,15.40
2014,09,16,08,56,15.50
2014,09,16,08,57,15.60
2014,09,16,08,58,15.70
2014,09,16,08,59,15.80
2014,09,16,09,00,15.90
2014,09,16,09,01,16.00
2014,09,16,09,02,16.10
2014,09,16,09,03,16.20
2014,09,16,09,04,16.30
2014,09,16,09,05,16.40
2014,09,16,09,06,16.50
2014,09,16,09,07,16.60
2014,09,16,09,08,16.70
2014,09,16,09,09,16.70
2014,09,16,09,10,16.80
2014,09,16,09,11,16.80
2014,09,16,09,12,16.80
2014,09,16,09,13,16.80
2014,09,16,09,14,16.80
2014,09,16,09,15,16.80
2014,09,16,09,16,16.80
2014,09,16,09,17,16.80
2014,09,16,09,18,16.80
2014,09,16,09,19,16.80
2014,09,16,09,20,16.80
2014,09,16,09,21,16.80
2014,09,16,09,22,16.80
2014,09,16,09,23,16.80
2014,09,16,09,24,16.80
2014,09,16,09,25,16.80
2014,09,16,09,26,16.90
2014,09,16,09,27,16.90
2014,09,16,09,28,16.90
2014,09,16,09,29,16.90
2014,09,16,09,30,16.90
2014,09,16,09,31,16.90
2014,09,16,09,32,16.90
2014,09,16,09,33,16.90
2014,09,16,09,34,16.90
2014,09,16,09,35,16.80
2014,09,16,09,36,16.70
2014,09,16,09,37,16.50
2014,09,16,09,38,16.40
2014,09,16,09,39,16.40
2014,09,16,09,40,16.30
2014,09,16,09,41,16.30
2014,09,16,09,42,16.30
2014,09,16,09,43,16.20
2014,09,16,09,44,16.30
2014,09,16,09,45,16.20
2014,09,16,09,46,16.30
2014,09,16,09,47,16.30
2014,09,16,09,48,16.30
2014,09,16,09,49,16.30
2014,09,16,09,50,16.30
2014,09,16,09,51,16.20
2014,09,16,09,52,16.30
2014,09,16,09,53,16.30
2014,09,16,09,54,16.30
2014,09,16,09,55,16.30
2014,09,16,09,56,16.30
2014,09,16,09,57,16.30
2014,09,16,09,58,16.20
2014,09,16,09,59,16.30
2014,09,16,10,00,16.20
2014,09,16,10,01,16.20
2014,09,16,10,02,16.10
2014,09,16,10,03,16.10
2014,09,16,10,04,16.10
2014,09,16,10,05,16.10
2014,09,16,10,06,16.10
2014,09,16,10,07,16.10
2014,09,16,10,08,16.00
2014,09,16,10,09,16.10
2014,09,16,10,10,16.10
2014,09,16,10,11,16.10
2014,09,16,10,12,16.10
2014,09,16,10,13,16.10
2014,09,16,10,14,16.10
2014,09,16,10,15,16.10
2014,09,16,10,16,16.10
2014,09,16,10,17,16.20
2014,09,16,10,18,16.20
2014,09,16,10,19,16.20
2014,09,16,10,20,16.20
2014,09,16,10,21,16.20
2014,09,16,10,22,16.30
2014,09,16,10,23,16.30
2014,09,16,10,24,16.30
2014,09,16,10,25,16.40
2014,09,16,10,26,16.40
2014,09,16,10,27,16.50
2014,09,16,10,28,16.60
2014,09,16,10,29,16.70
2014,09,16,10,30,16.70
2014,09,16,10,31,16.80
2014,09,16,10,32,16.80
2014,09,16,10,33,16.80
2014,09,16,10,34,16.90
2014,09,16,10,35,16.90
2014,09,16,10,36,17.00
2014,09,16,10,37,17.00
2014,09,16,10,38,17.10
2014,09,16,10,39,17.10
2014,09,16,10,40,17.20
2014,09,16,10,41,17.30
2014,09,16,10,42,17.40
2014,09,16,10,43,17.50
2014,09,16,10,44,17.60
2014,09,16,10,45,17.70
2014,09,16,10,46,17.80
2014,09,16,10,47,17.90
2014,09,16,10,48,18.00
2014,09,16,10,49,18.10
2014,09,16,10,50,18.20
2014,09,16,10,51,18.30
2014,09,16,10,52,18.40
2014,09,16,10,53,18.50
2014,09,16,10,54,18.50
2014,09,16,10,55,18.60
2014,09,16,10,56,18.60
2014,09,16,10,57,18.70
2014,09,16,10,58,18.70
2014,09,16,10,59,18.70
2014,09,16,11,00,18.70
2014,09,16,11,01,18.70
2014,09,16,11,02,18.80
2014,09,16,11,03,18.80
2014,09,16,11,04,18.90
2014,09,16,11,05,19.00
2014,09,16,11,06,19.10
2014,09,16,11,07,19.20
2014,09,16,11,08,19.30
2014,09,16,11,09,19.40
2014,09,16,11,10,19.50
2014,09,16,11,11,19.60
2014,09,16,11,12,19.60
2014,09,16,11,13,19.60
2014,09,16,11,14,19.60
2014,09,16,11,15,19.60
2014,09,16,11,16,19.60
2014,09,16,11,17,19.60
2014,09,16,11,18,19.70
2014,09,16,11,19,19.70
2014,09,16,11,20,19.80
2014,09,16,11,21,19.90
2014,09,16,11,22,19.90
2014,09,16,11,23,20.00
2014,09,16,11,24,19.90
2014,09,16,11,25,19.90
2014,09,16,11,26,19.90
2014,09,16,11,27,19.90
2014,09,16,11,28,19.90
2014,09,16,11,29,20.00
2014,09,16,11,30,20.00
2014,09,16,11,31,20.00
2014,09,16,11,32,20.00
2014,09,16,11,33,20.00
2014,09,16,11,34,19.90
2014,09,16,11,35,19.90
2014,09,16,11,36,19.90
2014,09,16,11,37,20.00
2014,09,16,11,38,20.10
2014,09,16,11,39,20.20
2014,09,16,11,40,20.40
2014,09,16,11,41,20.50
2014,09,16,11,42,20.60
2014,09,16,11,43,20.60
2014,09,16,11,44,20.70
2014,09,16,11,45,20.70
2014,09,16,11,46,20.70
2014,09,16,11,47,20.70
2014,09,16,11,48,20.70
2014,09,16,11,49,20.80
2014,09,16,11,50,20.80
2014,09,16,11,51,20.90
2014,09,16,11,52,21.00
2014,09,16,11,53,21.10
2014,09,16,11,54,21.20
2014,09,16,11,55,21.30
2014,09,16,11,56,21.30
2014,09,16,11,57,21.30
2014,09,16,11,58,21.20
2014,09,16,11,59,21.10
2014,09,16,12,00,21.10
2014,09,16,12,01,21.10
2014,09,16,12,02,21.10
2014,09,16,12,03,21.20
2014,09,16,12,04,21.30
2014,09,16,12,05,21.50
2014,09,16,12,06,21.60
2014,09,16,12,07,21.60
2014,09,16,12,08,21.80
2014,09,16,12,09,21.90
2014,09,16,12,10,22.00
2014,09,16,12,11,22.10
2014,09,16,12,12,22.20
2014,09,16,12,13,22.30
2014,09,16,12,14,22.40
2014,09,16,12,15,22.50
2014,09,16,12,16,22.40
2014,09,16,12,17,22.40
2014,09,16,12,18,22.20
2014,09,16,12,19,22.00
2014,09,16,12,20,21.80
2014,09,16,12,21,21.60
2014,09,16,12,22,21.40
2014,09,16,12,23,21.30
2014,09,16,12,24,21.30
2014,09,16,12,25,21.20
2014,09,16,12,26,21.10
2014,09,16,12,27,20.90
2014,09,16,12,28,20.60
2014,09,16,12,29,20.40
2014,09,16,12,30,20.30
2014,09,16,12,31,20.20
2014,09,16,12,32,20.10
2014,09,16,12,33,19.90
2014,09,16,12,34,19.80
2014,09,16,12,35,19.80
2014,09,16,12,36,19.60
2014,09,16,12,37,19.50
2014,09,16,12,38,19.40
2014,09,16,12,39,19.40
2014,09,16,12,40,19.30
2014,09,16,12,41,19.20
2014,09,16,12,42,19.20
2014,09,16,12,43,19.30
2014,09,16,12,44,19.30
2014,09,16,12,45,19.40
2014,09,16,12,46,19.40
2014,09,16,12,47,19.40
2014,09,16,12,48,19.50
2014,09,16,12,49,19.50
2014,09,16,12,50,19.50
2014,09,16,12,51,19.60
2014,09,16,12,52,19.60
2014,09,16,12,53,19.70
2014,09,16,12,54,19.80
2014,09,16,12,55,19.90
2014,09,16,12,56,20.00
2014,09,16,12,57,20.20
2014,09,16,12,58,20.30
2014,09,16,12,59,20.40
2014,09,16,13,00,20.60
2014,09,16,13,01,20.70
2014,09,16,13,02,20.80
2014,09,16,13,03,20.90
2014,09,16,13,04,21.00
2014,09,16,13,05,21.10
2014,09,16,13,06,21.20
2014,09,16,13,07,21.30
2014,09,16,13,08,21.40
2014,09,16,13,09,21.50
2014,09,16,13,10,21.60
2014,09,16,13,11,21.70
2014,09,16,13,12,21.70
2014,09,16,13,13,21.70
2014,09,16,13,14,21.50
2014,09,16,13,15,21.40
2014,09,16,13,16,21.30
2014,09,16,13,17,21.20
2014,09,16,13,18,21.10
2014,09,16,13,19,20.90
2014,09,16,13,20,20.60
2014,09,16,13,21,20.30
2014,09,16,13,22,20.00
2014,09,16,13,23,19.80
2014,09,16,13,24,19.60
2014,09,16,13,25,19.40
2014,09,16,13,26,19.30
2014,09,16,13,27,19.20
2014,09,16,13,28,19.20
2014,09,16,13,29,19.20
2014,09,16,13,30,19.10
2014,09,16,13,31,19.10
2014,09,16,13,32,19.10
2014,09,16,13,33,19.10
2014,09,16,13,34,19.10
2014,09,16,13,35,19.10
2014,09,16,13,36,19.10
2014,09,16,13,37,19.10
2014,09,16,13,38,19.10
2014,09,16,13,39,19.20
2014,09,16,13,40,19.30
2014,09,16,13,41,19.30
2014,09,16,13,42,19.30
2014,09,16,13,43,19.40
2014,09,16,13,44,19.40
2014,09,16,13,45,19.40
2014,09,16,13,46,19.50
2014,09,16,13,47,19.50
2014,09,16,13,48,19.50
2014,09,16,13,49,19.50
2014,09,16,13,50,19.50
2014,09,16,13,51,19.60
2014,09,16,13,52,19.60
2014,09,16,13,53,19.60
2014,09,16,13,54,19.70
2014,09,16,13,55,19.80
2014,09,16,13,56,19.80
2014,09,16,13,57,19.80
2014,09,16,13,58,19.90
2014,09,16,13,59,20.00
2014,09,16,14,00,20.00
2014,09,16,14,01,20.10
2014,09,16,14,02,20.30
2014,09,16,14,03,20.50
2014,09,16,14,04,20.70
2014,09,16,14,05,20.80
2014,09,16,14,06,21.10
2014,09,16,14,07,21.20
2014,09,16,14,08,21.40
2014,09,16,14,09,21.50
2014,09,16,14,10,21.60
2014,09,16,14,11,21.60
2014,09,16,14,12,21.60
2014,09,16,14,13,21.60
2014,09,16,14,14,21.60
2014,09,16,14,15,21.60
2014,09,16,14,16,21.50
2014,09,16,14,17,21.50
2014,09,16,14,18,21.40
2014,09,16,14,19,21.40
2014,09,16,14,20,21.30
2014,09,16,14,21,21.20
2014,09,16,14,22,21.10
2014,09,16,14,23,21.10
2014,09,16,14,24,21.00
2014,09,16,14,25,20.90
2014,09,16,14,26,20.90
2014,09,16,14,27,20.80
2014,09,16,14,28,20.90
2014,09,16,14,29,20.90
2014,09,16,14,30,21.00
2014,09,16,14,31,21.10
2014,09,16,14,32,21.20
2014,09,16,14,33,21.30
2014,09,16,14,34,21.30
2014,09,16,14,35,21.40
2014,09,16,14,36,21.40
2014,09,16,14,37,21.50
2014,09,16,14,38,21.50
2014,09,16,14,39,21.50
2014,09,16,14,40,21.60
2014,09,16,14,41,21.60
2014,09,16,14,42,21.70
2014,09,16,14,43,21.70
2014,09,16,14,44,21.80
2014,09,16,14,45,21.80
2014,09,16,14,46,21.90
2014,09,16,14,47,21.90
2014,09,16,14,48,22.00
2014,09,16,14,49,22.00
2014,09,16,14,50,22.10
2014,09,16,14,51,22.10
2014,09,16,14,52,22.10
2014,09,16,14,53,22.20
2014,09,16,14,54,22.20
2014,09,16,14,55,22.20
2014,09,16,14,56,22.20
2014,09,16,14,57,22.20
2014,09,16,14,58,22.30
2014,09,16,14,59,22.30
2014,09,16,15,00,22.30
2014,09,16,15,01,22.40
2014,09,16,15,02,22.50
2014,09,16,15,03,22.50
2014,09,16,15,04,22.60
2014,09,16,15,05,22.60
2014,09,16,15,06,22.60
2014,09,16,15,07,22.70
2014,09,16,15,08,22.80
2014,09,16,15,09,22.80
2014,09,16,15,10,22.80
2014,09,16,15,11,22.80
2014,09,16,15,12,22.70
2014,09,16,15,13,22.60
2014,09,16,15,14,22.50
2014,09,16,15,15,22.50
2014,09,16,15,16,22.40
2014,09,16,15,17,22.30
2014,09,16,15,18,22.30
2014,09,16,15,19,22.20
2014,09,16,15,20,22.20
2014,09,16,15,21,22.00
2014,09,16,15,22,22.00
2014,09,16,15,23,21.90
2014,09,16,15,24,21.80
2014,09,16,15,25,21.80
2014,09,16,15,26,21.80
2014,09,16,15,27,21.80
2014,09,16,15,28,21.90
2014,09,16,15,29,22.00
2014,09,16,15,30,22.00
2014,09,16,15,31,22.10
2014,09,16,15,32,22.20
2014,09,16,15,33,22.30
2014,09,16,15,34,22.40
2014,09,16,15,35,22.40
2014,09,16,15,36,22.40
2014,09,16,15,37,22.50
2014,09,16,15,38,22.60
2014,09,16,15,39,22.80
2014,09,16,15,40,22.90
2014,09,16,15,41,23.00
2014,09,16,15,42,23.20
2014,09,16,15,43,23.30
2014,09,16,15,44,23.40
2014,09,16,15,45,23.50
2014,09,16,15,46,23.60
2014,09,16,15,47,23.70
2014,09,16,15,48,23.80
2014,09,16,15,49,23.90
2014,09,16,15,50,24.00
2014,09,16,15,51,24.00
2014,09,16,15,52,23.90
2014,09,16,15,53,23.90
2014,09,16,15,54,24.00
2014,09,16,15,55,24.10
2014,09,16,15,56,24.10
2014,09,16,15,57,24.20
2014,09,16,15,58,24.30
2014,09,16,15,59,24.30
2014,09,16,16,00,24.30
2014,09,16,16,01,24.30
2014,09,16,16,02,24.30
2014,09,16,16,03,24.30
2014,09,16,16,04,24.30
2014,09,16,16,05,24.30
2014,09,16,16,06,24.20
2014,09,16,16,07,24.10
2014,09,16,16,08,24.10
2014,09,16,16,09,24.00
2014,09,16,16,10,24.00
2014,09,16,16,11,24.00
2014,09,16,16,12,24.00
2014,09,16,16,13,23.90
2014,09,16,16,14,23.70
2014,09,16,16,15,23.50
2014,09,16,16,16,23.20
2014,09,16,16,17,23.00
2014,09,16,16,18,22.80
2014,09,16,16,19,22.50
2014,09,16,16,20,22.30
2014,09,16,16,21,22.10
2014,09,16,16,22,21.90
2014,09,16,16,23,21.80
2014,09,16,16,24,21.80
2014,09,16,16,25,21.70
2014,09,16,16,26,21.70
2014,09,16,16,27,21.60
2014,09,16,16,28,21.60
2014,09,16,16,29,21.60
2014,09,16,16,30,21.60
2014,09,16,16,31,21.60
2014,09,16,16,32,21.50
2014,09,16,16,33,21.40
2014,09,16,16,34,21.30
2014,09,16,16,35,21.20
2014,09,16,16,36,21.10
2014,09,16,16,37,21.10
2014,09,16,16,38,21.00
2014,09,16,16,39,20.90
2014,09,16,16,40,20.80
2014,09,16,16,41,20.80
2014,09,16,16,42,20.80
2014,09,16,16,43,20.80
2014,09,16,16,44,20.70
2014,09,16,16,45,20.70
2014,09,16,16,46,20.70
2014,09,16,16,47,20.70
2014,09,16,16,48,20.70
2014,09,16,16,49,20.60
2014,09,16,16,50,20.60
2014,09,16,16,51,20.40
2014,09,16,16,52,20.20
2014,09,16,16,53,20.10
2014,09,16,16,54,19.90
2014,09,16,16,55,19.80
2014,09,16,16,56,19.70
2014,09,16,16,57,19.70
2014,09,16,16,58,19.60
2014,09,16,16,59,19.60
2014,09,16,17,00,19.50
2014,09,16,17,01,19.40
2014,09,16,17,02,19.40
2014,09,16,17,03,19.30
2014,09,16,17,04,19.30
2014,09,16,17,05,19.20
2014,09,16,17,06,19.20
2014,09,16,17,07,19.20
2014,09,16,17,08,19.20
2014,09,16,17,09,19.20
2014,09,16,17,10,19.20
2014,09,16,17,11,19.30
2014,09,16,17,12,19.30
2014,09,16,17,13,19.30
2014,09,16,17,14,19.40
2014,09,16,17,15,19.40
2014,09,16,17,16,19.40
2014,09,16,17,17,19.40
2014,09,16,17,18,19.40
2014,09,16,17,19,19.50
2014,09,16,17,20,19.60
2014,09,16,17,21,19.60